Theta_e
312 312 312 311 309 309 309 310 311 311 311 312 312 312 313 313 313 311 313 318 310 305 306 308 309 307 306 306 302 310 311 314 314 308 308 307 307 309 308 312 309 310 308 307 311 307 303 322 320 315 325 329 329 329
312 312 312 311 309 309 310 310 311 311 311 311 312 312 312 312 312 312 310 315 315 307 306 310 310 311 310 310 307 309 308 309 315 312 313 313 310 313 313 306 316 308 313 308 310 309 321 324 322 329 327 327 330 330
312 312 312 311 309 310 311 310 311 311 311 311 312 312 312 312 312 310 308 311 312 307 306 308 308 313 316 314 312 302 305 309 309 314 313 313 311 316 311 312 315 317 317 314 313 317 320 323 324 332 329 328 328 331
313 312 312 311 310 310 310 310 311 310 311 311 311 311 311 312 312 311 307 311 311 308 301 305 313 311 314 314 313 311 308 309 309 311 311 310 310 318 313 315 313 316 316 313 315 317 319 323 325 328 328 331 333 332
312 312 311 311 311 311 310 310 310 310 311 311 311 311 311 311 312 310 310 312 315 306 300 302 308 310 313 312 310 311 311 308 306 304 304 303 309 313 315 316 312 317 314 313 312 321 318 316 320 331 333 333 333 334
312 312 312 310 310 310 310 310 310 310 311 310 311 311 311 311 311 309 310 314 315 313 303 297 307 306 309 312 310 310 309 309 307 305 304 306 309 309 307 308 317 319 322 323 322 323 322 320 323 332 333 333 335 337
312 311 310 309 309 310 310 310 310 310 310 310 310 311 310 311 309 305 305 309 309 312 302 299 300 308 311 313 311 309 311 309 307 305 305 304 306 309 308 305 314 319 323 325 328 327 320 324 326 332 334 334 336 340
311 310 309 308 309 310 310 310 310 310 310 310 310 310 311 311 309 306 310 310 311 306 304 297 299 302 309 305 306 315 312 313 312 308 307 304 307 308 303 312 317 318 321 323 324 327 324 326 330 332 334 335 335 337
310 309 309 308 310 310 310 310 310 310 310 310 310 310 309 307 306 309 312 310 311 305 298 300 297 295 307 307 307 311 313 309 313 309 309 308 305 303 306 312 315 319 321 320 324 325 325 325 326 330 333 334 335 337
310 309 309 309 310 309 309 309 310 310 310 310 308 307 303 308 312 311 308 302 301 301 300 296 301 297 303 302 302 305 311 308 301 306 312 307 305 311 316 320 324 323 322 321 320 321 323 325 326 329 332 334 337 339
309 309 308 309 309 309 309 309 309 309 308 308 306 304 310 313 309 304 298 297 297 293 297 300 301 298 305 298 299 303 303 306 299 302 302 304 305 312 315 316 322 326 326 323 324 327 327 330 331 332 333 335 339 339
309 309 309 309 308 309 309 309 309 306 308 305 304 308 308 304 301 296 295 298 296 296 302 301 303 306 306 308 301 302 299 301 296 306 304 301 310 318 320 318 320 324 325 322 325 326 327 331 333 334 335 337 337 338
309 309 309 308 308 309 309 309 308 308 308 309 304 300 299 298 291 291 290 294 296 303 304 305 302 310 308 308 303 302 297 296 306 301 300 303 317 320 324 325 324 325 325 324 324 327 328 334 336 338 336 337 336 337
309 308 308 308 308 309 309 308 308 307 306 299 296 290 293 292 293 296 296 298 302 306 304 304 302 303 308 302 306 299 301 303 297 297 299 305 315 328 332 328 326 325 326 325 325 329 331 335 335 336 337 338 336 334
308 308 307 308 309 308 308 308 308 308 303 297 297 290 294 299 300 300 302 301 304 305 304 304 304 303 303 300 302 303 299 296 298 298 306 315 320 324 325 326 327 328 329 329 329 330 335 335 334 334 336 333 333 331
307 307 307 309 308 308 308 307 306 306 303 297 297 296 300 298 298 300 302 300 305 305 305 306 302 299 298 301 299 298 298 297 303 307 308 311 321 322 323 323 324 326 330 331 331 334 334 332 331 331 332 333 333 333
306 307 308 309 309 309 308 306 306 300 297 295 296 301 300 300 299 300 302 302 306 302 301 301 295 296 302 298 297 302 297 301 306 306 309 312 318 318 320 320 321 324 326 330 339 334 331 331 331 332 329 329 329 331
308 310 309 308 308 307 305 305 301 298 294 298 297 300 302 303 302 303 303 305 304 303 305 301 305 298 295 293 296 302 304 309 310 309 310 314 314 316 318 318 324 330 328 333 334 329 328 328 326 326 327 326 325 324
309 309 308 308 308 306 300 300 301 294 297 300 302 303 304 304 306 307 306 308 309 309 305 305 300 297 300 304 304 307 308 309 307 308 310 313 315 321 324 331 334 335 334 331 329 326 327 329 328 327 326 323 322 324
309 308 308 307 306 304 298 300 305 299 297 302 303 302 304 304 307 307 307 308 311 308 303 300 300 302 304 309 313 310 311 310 308 306 308 314 322 324 336 335 333 332 330 328 327 320 328 327 327 324 323 325 321 319
304 308 307 307 307 305 302 301 301 301 301 299 304 304 302 306 306 307 310 317 308 303 300 305 306 310 316 314 315 313 310 309 308 309 312 318 323 325 335 336 333 332 331 330 328 326 323 324 327 327 327 325 325 323
310 309 308 307 303 300 299 304 300 302 299 301 302 304 303 302 304 309 314 308 307 307 309 309 310 315 314 311 312 314 315 316 318 319 315 318 323 332 331 333 332 332 331 332 330 329 328 330 329 328 327 325 322 322
310 309 306 302 298 296 296 304 298 301 296 299 302 300 302 304 307 310 302 305 308 319 319 317 316 314 312 314 318 320 320 320 320 323 326 326 328 331 331 332 333 331 330 330 330 327 329 318 321 327 326 324 324 320
308 304 298 297 298 294 301 299 302 299 300 300 300 299 301 304 306 302 299 304 312 311 311 309 312 314 316 317 318 320 321 323 324 325 327 329 331 331 330 331 332 331 331 331 330 330 328 328 320 325 324 322 319 317
294 294 296 291 301 297 295 295 297 297 296 300 298 299 302 304 298 298 297 302 307 306 307 309 310 316 317 319 321 324 327 328 324 325 330 331 332 331 332 332 331 331 332 330 327 327 327 327 326 324 322 319 317 318
290 297 293 297 297 296 296 294 296 296 298 298 300 305 305 299 295 294 297 303 305 305 307 308 310 315 322 322 327 327 331 333 333 331 332 330 331 330 328 327 325 327 330 329 328 326 325 325 323 321 318 315 308 319
290 295 300 304 301 301 298 300 301 299 297 297 300 301 299 293 292 297 302 307 307 309 312 313 317 321 323 326 330 333 334 341 332 332 333 335 332 331 329 326 325 327 330 329 327 325 322 320 319 317 317 319 320 320
298 299 296 301 300 301 296 296 296 296 299 304 302 296 296 294 294 302 308 311 311 312 314 319 325 329 327 333 332 334 334 338 333 332 332 332 331 330 330 329 327 309 325 325 323 322 321 320 319 319 319 320 321 322
297 301 300 298 299 300 298 297 297 301 305 304 299 297 298 304 308 308 308 309 314 316 318 324 330 331 331 332 333 333 334 331 329 326 323 323 325 326 327 325 324 325 324 322 301 316 325 322 322 322 322 321 321 321
299 303 300 298 296 296 300 303 303 306 307 308 306 305 304 304 307 310 310 312 316 320 326 332 332 329 331 331 328 331 334 335 333 329 322 323 325 326 324 324 324 324 324 324 322 319 305 317 313 320 319 320 320 320
303 301 298 298 298 302 304 306 307 309 308 306 307 304 303 308 317 322 327 330 330 331 330 330 329 331 331 330 329 328 329 330 331 330 330 327 326 326 325 325 325 325 324 323 321 320 318 318 319 320 320 319 318 315
301 299 298 296 299 306 308 307 307 307 308 308 307 309 313 316 313 322 330 327 328 326 316 325 329 331 332 332 330 329 310 330 332 328 328 326 326 326 325 325 325 325 324 322 320 320 321 321 320 320 319 318 318 319
300 300 300 299 301 304 308 308 307 308 310 310 312 318 318 316 312 323 328 330 328 326 326 328 331 334 332 335 327 325 314 326 308 299 300 302 303 309 324 326 326 325 324 322 321 321 321 321 320 320 320 319 319 320
Wind_Speed
12 11 10 10 9 9 10 10 11 11 12 12 13 14 15 16 17 12 8 3 6 7 16 17 14 13 12 11 11 12 11 7 10 13 13 13 15 15 17 19 5 12 3 11 14 14 13 12 13 11 9 17 16 14
13 12 11 10 9 10 10 10 11 11 11 12 12 12 13 14 15 14 8 10 8 7 13 24 24 24 24 21 14 13 13 15 7 9 9 8 14 15 15 15 4 1 10 6 1 6 19 16 13 22 12 8 18 14
14 13 12 12 10 10 10 10 10 11 11 12 12 11 12 12 12 9 8 9 10 9 14 11 13 13 17 18 16 14 11 15 12 12 11 10 14 9 11 10 20 9 12 3 4 12 13 18 10 14 16 10 16 24
15 14 13 12 11 11 11 10 10 10 11 11 12 12 12 13 12 11 8 9 9 7 7 9 5 12 10 11 14 14 17 17 15 11 9 11 12 11 14 13 15 8 8 9 12 13 9 18 27 7 6 19 14 17
15 14 14 13 12 11 11 11 10 10 11 10 11 11 12 13 14 11 10 9 7 6 7 12 21 25 18 19 20 17 14 14 9 11 10 11 13 14 13 16 13 7 8 15 8 0 4 6 27 16 5 8 12 15
16 15 14 12 12 11 11 11 10 10 10 10 11 11 11 12 12 9 2 4 6 3 6 7 11 15 16 15 12 15 14 13 10 12 10 11 19 16 12 15 18 21 20 20 4 6 6 8 34 25 8 11 14 16
17 16 14 13 13 12 10 10 10 10 10 10 11 11 10 9 7 7 7 5 11 7 6 8 7 10 10 11 11 11 14 8 11 12 13 13 14 12 13 19 18 22 20 13 9 9 9 19 14 12 11 11 15 9
18 16 14 13 13 11 10 10 10 10 10 11 12 11 10 9 12 9 2 12 8 6 5 7 8 12 15 12 10 11 10 11 13 12 12 12 12 12 15 16 18 22 23 20 19 2 15 18 10 10 13 11 9 4
19 17 14 14 12 10 10 10 9 10 10 11 12 12 6 5 6 3 5 10 6 6 6 7 11 12 10 11 10 5 3 11 7 11 13 12 13 15 9 18 21 21 17 17 17 17 13 15 8 5 9 10 9 6
19 17 14 13 11 10 10 9 9 10 10 11 9 6 4 3 12 7 2 3 1 3 5 9 11 16 12 14 13 10 5 9 7 12 13 15 17 20 19 17 13 16 20 19 17 14 13 13 11 3 5 9 7 10
19 17 15 13 10 8 8 8 8 10 12 6 5 3 4 8 5 4 4 5 5 5 7 8 13 15 12 14 13 11 7 5 7 10 15 15 17 16 23 23 18 18 17 18 20 17 12 6 10 6 3 9 9 15
19 17 14 12 9 9 9 8 7 5 3 4 5 9 5 5 4 6 5 5 6 7 7 7 7 12 9 8 10 10 15 11 12 7 6 12 14 17 19 25 23 20 18 22 15 14 14 2 4 6 9 9 16 17
18 15 14 12 10 10 9 8 8 8 12 4 4 3 2 5 3 6 9 10 5 8 8 11 12 9 7 5 8 8 11 15 15 14 13 10 19 16 15 17 20 19 19 18 18 15 16 6 5 9 12 14 18 16
17 16 14 12 11 10 9 8 7 7 6 3 4 3 6 7 7 10 11 12 10 7 4 9 3 6 3 5 6 7 8 9 9 15 19 9 17 6 9 11 16 20 22 22 21 20 12 12 9 10 13 12 13 15
17 15 13 12 12 11 9 8 8 7 3 5 5 6 10 11 12 11 10 8 13 8 9 6 8 8 6 6 4 8 5 7 12 18 2 5 3 8 10 8 5 3 6 9 13 10 13 12 11 12 14 14 13 14
17 11 10 14 15 12 11 9 6 4 3 4 8 10 9 11 8 8 10 2 12 6 7 4 5 6 6 5 5 7 9 3 8 8 9 15 8 9 9 10 10 10 11 13 13 19 17 14 14 12 12 12 11 13
16 5 20 14 15 13 10 5 2 5 5 6 8 10 12 11 10 10 8 9 7 7 3 3 5 3 6 5 6 3 7 9 11 12 10 14 15 14 14 13 15 16 13 13 12 19 16 13 13 13 13 13 13 11
2 13 21 19 15 9 6 6 5 6 8 8 10 11 10 9 10 8 8 7 4 5 3 4 4 5 5 5 4 3 8 11 9 10 11 14 19 21 23 30 22 20 10 13 20 15 18 14 12 9 12 13 14 12
7 13 16 15 6 3 4 5 4 6 8 9 11 10 9 10 9 8 7 7 7 5 3 3 6 5 8 5 7 7 7 8 10 14 13 17 22 20 20 10 15 18 20 20 19 14 14 17 12 10 10 9 9 9
19 17 14 9 5 3 4 4 5 6 6 5 7 9 8 9 10 7 8 9 6 4 5 6 9 10 11 7 3 6 7 7 10 13 17 13 7 11 5 14 15 19 17 16 15 14 14 11 6 10 9 10 8 7
7 9 8 6 4 3 4 4 6 5 6 5 8 7 7 10 10 9 8 5 5 5 6 9 12 12 9 6 5 5 12 12 13 11 14 10 5 4 7 11 13 12 13 13 13 13 11 9 11 12 10 11 9 9
4 14 3 4 4 3 5 6 4 5 5 8 10 9 8 7 8 5 3 5 5 10 11 11 10 9 8 12 11 10 15 16 14 11 8 5 4 5 7 5 10 10 12 12 11 12 10 10 10 10 10 9 10 10
10 5 4 2 5 5 6 5 5 5 4 3 2 4 5 3 4 5 4 6 8 3 3 5 7 8 11 16 16 14 13 13 8 4 2 3 3 4 3 4 7 11 12 12 9 10 9 14 10 10 11 11 10 11
2 4 4 5 7 5 4 5 5 3 4 4 4 5 4 2 2 3 4 5 3 7 7 11 9 10 9 11 9 13 9 6 4 2 3 4 3 1 8 9 11 12 10 10 10 11 11 12 12 12 12 13 12 12
3 3 4 5 6 5 5 5 6 4 5 8 8 4 2 2 3 2 3 4 4 6 8 10 9 10 8 9 9 2 8 5 5 6 6 5 7 11 9 10 11 12 11 11 12 13 12 11 11 11 12 12 13 14
4 7 6 5 5 6 5 4 2 5 8 6 3 3 2 1 2 4 3 3 3 7 9 9 10 11 9 7 4 7 8 5 6 9 9 5 6 10 10 11 11 10 9 10 11 13 13 12 12 14 13 13 10 12
4 6 7 5 4 2 3 6 6 6 4 4 3 3 2 2 4 4 3 4 5 9 10 10 9 10 9 9 5 4 2 3 3 8 6 6 11 10 10 11 12 10 11 12 11 12 12 13 13 14 13 11 10 11
5 4 9 8 8 5 8 5 3 5 4 2 3 3 3 2 5 3 4 5 8 10 11 11 9 8 10 2 1 4 3 1 8 7 8 7 8 10 13 11 9 11 10 11 11 11 12 13 13 14 13 12 9 9
6 8 5 8 7 5 5 5 5 4 5 3 2 2 4 4 4 7 8 9 9 9 9 9 7 6 5 3 5 5 2 2 10 9 12 10 11 11 9 10 9 10 10 8 10 9 14 13 12 11 10 8 9 9
8 6 5 4 6 6 8 7 6 6 2 3 4 3 4 8 10 10 9 8 7 7 8 5 6 6 3 0 4 6 2 6 8 6 4 9 10 10 10 10 11 10 10 11 11 12 13 12 10 9 9 9 10 9
2 2 3 5 7 9 11 11 9 9 5 8 8 7 10 5 3 5 3 4 6 6 2 3 1 3 3 2 2 2 2 4 8 11 8 9 10 10 10 10 9 10 10 11 11 11 11 12 10 10 10 11 9 8
5 5 4 4 8 7 8 9 8 7 9 11 7 5 4 1 2 1 2 4 3 5 3 4 1 3 2 8 9 3 2 10 12 8 13 9 10 10 10 10 10 10 11 12 11 12 12 11 10 10 10 10 7 10
4 3 4 7 6 5 4 4 5 7 6 1 1 1 2 2 1 2 2 3 4 3 5 4 1 2 6 2 9 6 9 2 5 15 19 16 16 9 6 9 10 10 12 11 11 10 9 11 11 11 12 11 7 10
Wind_Direction
242 248 252 261 278 291 304 313 322 327 333 336 339 340 343 347 349 342 313 38 341 305 295 284 301 299 285 268 265 295 323 341 252 268 263 253 262 265 252 252 267 277 315 238 227 232 230 4 324 360 359 360 19 6
237 242 246 251 267 281 296 306 314 320 324 329 332 334 336 342 345 341 300 350 356 279 290 306 289 275 263 272 292 293 291 304 320 320 316 325 309 308 296 290 13 143 259 220 266 309 307 306 31 16 34 10 336 336
229 237 241 246 259 271 285 296 303 311 316 319 324 326 326 330 331 336 307 291 291 294 290 264 254 258 216 234 241 257 264 274 281 282 292 290 272 296 290 293 309 68 10 351 249 256 293 330 1 39 348 339 324 315
223 230 234 241 249 264 277 285 294 303 308 311 316 320 320 320 320 314 293 304 294 299 280 293 352 334 303 245 226 233 256 270 285 296 289 281 278 292 289 291 295 358 135 309 267 265 349 319 297 67 355 314 307 304
216 224 231 239 248 259 270 279 288 295 300 305 308 311 313 314 314 295 270 265 278 305 303 307 300 280 258 243 248 242 237 254 259 255 254 263 276 282 278 282 281 268 168 198 299 9 127 347 310 304 264 283 285 287
211 217 222 232 244 253 263 274 284 289 295 299 302 306 309 313 320 296 239 154 32 334 291 298 333 283 266 264 233 228 245 247 246 260 255 261 267 277 281 276 289 281 274 300 195 121 6 235 239 246 22 325 302 303
206 211 213 229 239 248 257 269 277 283 286 291 294 297 300 301 292 284 332 356 339 313 271 282 276 266 208 246 243 244 235 231 242 245 249 257 264 270 258 260 267 278 278 309 63 103 131 257 290 332 337 320 309 316
200 203 208 220 236 243 251 259 269 278 283 287 287 288 287 288 270 258 239 216 223 271 253 270 261 275 265 251 239 235 225 227 217 235 250 252 255 249 253 262 264 259 277 298 303 264 195 240 303 338 319 315 302 264
193 194 204 214 228 234 249 256 268 277 282 282 285 284 265 225 227 81 108 135 205 275 293 265 264 285 256 287 222 202 62 272 242 244 229 241 243 233 243 239 261 273 261 265 273 285 293 290 298 322 307 306 293 211
187 191 201 213 214 222 240 254 268 278 280 288 267 202 212 61 122 147 147 198 184 254 245 259 266 259 274 294 295 294 60 276 251 251 241 230 240 245 258 264 261 249 259 275 280 287 284 288 297 240 296 290 271 106
182 190 196 205 203 223 238 250 268 294 262 214 230 32 95 146 228 220 224 218 165 238 219 239 238 255 250 251 259 266 247 203 240 251 254 252 235 232 225 245 255 240 259 246 247 253 280 303 318 329 261 251 129 123
177 185 191 182 188 211 232 238 252 257 353 337 297 268 230 224 235 254 234 208 222 252 215 245 328 309 283 228 237 248 260 263 255 261 272 276 247 233 220 222 227 240 229 248 255 269 275 259 308 265 223 129 98 109
173 177 172 177 198 214 219 223 237 285 281 243 226 276 213 243 245 229 229 217 233 329 327 335 319 297 321 57 267 238 228 242 246 250 255 245 290 227 226 207 215 217 230 236 238 243 254 146 215 127 117 126 128 125
168 168 171 187 204 204 206 206 225 245 248 217 231 241 241 215 224 235 240 270 296 247 275 275 295 307 325 333 304 283 271 253 243 235 237 253 278 329 4 178 202 209 212 216 226 226 191 149 157 149 160 140 142 133
161 165 179 198 197 196 193 202 210 218 262 239 216 236 225 245 264 285 291 279 290 286 291 276 267 200 222 249 221 276 231 238 231 243 25 197 76 19 350 356 19 265 222 230 226 178 134 146 150 159 133 138 136 127
154 151 202 185 186 185 180 187 196 216 233 243 239 248 269 287 294 303 296 232 258 286 299 331 275 275 228 224 232 241 257 312 355 336 319 326 345 326 315 307 297 280 275 254 226 132 130 141 139 138 135 131 129 133
173 237 164 169 171 176 186 228 179 216 240 224 237 228 243 275 286 297 292 297 298 295 313 328 276 311 299 278 251 4 354 315 317 307 319 304 309 306 297 288 285 264 254 262 141 127 127 133 131 132 124 122 123 113
224 133 138 144 157 169 176 213 213 241 238 246 258 258 262 274 281 282 282 273 305 295 283 253 276 245 253 255 248 225 298 299 303 295 296 300 308 303 275 261 253 246 230 202 128 121 121 118 118 131 131 125 121 128
135 141 149 162 198 153 186 206 240 256 242 250 256 264 277 280 272 279 280 300 306 332 235 235 259 247 253 257 269 287 302 297 304 302 293 294 283 282 292 136 150 137 131 124 125 125 130 131 137 138 130 126 135 160
113 132 148 160 214 215 233 208 212 258 274 303 293 272 289 280 274 271 264 253 252 248 234 238 249 265 272 306 276 275 285 289 294 296 287 280 286 308 66 83 97 107 105 106 105 122 125 120 137 123 140 154 156 144
176 140 145 194 211 279 279 249 225 246 290 290 289 295 283 286 284 285 277 273 231 205 240 246 261 266 280 290 268 282 276 275 272 271 279 289 326 304 110 113 117 117 118 126 143 138 139 147 167 163 164 155 149 142
103 162 121 198 199 188 252 254 256 299 281 267 279 272 265 265 287 299 272 230 235 238 236 257 265 286 294 283 279 279 271 269 262 264 264 289 295 71 139 142 124 139 129 143 132 135 155 142 124 133 135 123 137 144
163 176 152 143 209 211 256 219 226 225 246 261 271 256 249 290 329 346 286 273 280 23 334 318 298 276 270 280 284 277 269 271 282 274 249 278 268 245 196 128 118 115 117 130 136 142 131 118 132 135 133 162 140 134
206 158 177 209 209 248 220 218 215 252 238 238 246 268 272 237 327 254 253 275 336 328 343 326 319 300 291 273 277 278 267 253 217 260 265 288 233 297 107 118 118 134 138 132 137 129 141 150 148 138 158 128 138 156
133 227 207 244 213 235 224 222 218 224 256 260 275 248 251 166 251 276 300 294 310 317 314 312 301 278 245 265 287 119 199 170 177 198 220 238 126 126 144 128 114 123 133 124 128 143 135 144 138 147 133 136 155 165
216 202 211 226 207 211 223 278 251 246 268 292 275 270 72 311 293 273 263 291 288 294 300 301 302 305 319 320 286 167 152 190 187 153 131 142 140 109 109 116 114 103 121 137 132 129 150 141 140 137 134 149 165 147
236 233 216 225 285 312 293 260 292 289 289 281 289 330 310 256 259 249 276 244 276 307 305 295 288 296 297 305 342 15 22 114 58 88 84 131 116 126 123 122 125 129 125 122 141 147 133 135 142 132 143 154 169 161
242 265 241 212 219 239 260 268 269 252 236 31 17 300 290 249 257 243 250 276 303 306 297 287 275 279 280 321 354 54 15 353 115 116 159 109 82 95 93 87 79 101 127 129 124 128 137 140 130 144 154 169 181 142
222 234 250 249 239 200 222 214 240 257 160 110 293 261 242 231 247 263 276 291 298 289 288 290 295 269 229 211 119 120 264 237 151 122 100 110 105 96 107 122 130 121 112 96 48 125 134 136 151 150 143 133 131 145
245 219 233 237 237 245 233 227 257 278 41 153 187 239 263 265 258 255 260 264 264 270 271 269 280 273 83 73 105 117 109 357 1 74 108 113 115 125 142 131 122 128 133 125 110 98 95 107 113 145 145 136 118 116
299 210 244 267 264 260 263 261 260 277 199 232 239 233 245 265 218 203 246 272 273 291 323 341 15 75 102 97 67 119 65 322 334 300 119 116 132 141 126 126 132 133 129 129 134 141 139 155 154 147 143 118 119 162
193 210 209 250 269 273 283 269 261 272 253 239 224 201 217 273 320 122 349 339 16 350 358 331 136 126 179 103 69 14 198 239 265 125 122 122 115 124 136 138 145 134 132 144 153 150 172 148 139 131 118 126 181 133
195 208 229 258 247 230 252 233 253 257 263 269 93 93 154 183 98 47 25 343 316 316 298 290 308 29 336 36 155 189 242 271 116 78 73 66 53 24 159 139 123 128 147 156 150 165 177 156 148 142 148 152 191 152